CW0493 Weather Reports


time (UTC)temp
F
wind
direction
speed
knots
gust
knots
rain 1hr
in
rain 24hr
in
rain mn
in
humidity
%
barometer
mb
20260503181511 74 344 1.7 7.0 0.00 0.00 0.00 52 1009.6
20260503181014 74 286 1.7 7.8 0.00 0.00 0.00 53 1009.6
20260503180524 74 88 2.6 7.8 0.00 0.00 0.00 51 1009.6
20260503180051 75 327 2.6 8.7 0.00 0.00 0.00 51 1009.6
20260503175558 74 331 1.7 8.7 0.00 0.00 0.00 52 1009.6
20260503175500 74 88 2.6 8.7 0.00 0.00 0.00 53 1009.6
20260503175004 74 39 2.6 9.6 0.00 0.00 0.00 53 1009.7
20260503174535 74 58 1.7 9.6 0.00 0.00 0.00 55 1009.7
20260503174047 74 23 1.7 7.8 0.00 0.00 0.00 55 1009.7
20260503173553 73 39 3.5 7.8 0.00 0.00 0.00 56 1009.8
20260503173024 73 327 1.7 7.8 0.00 0.00 0.00 58 1009.7
20260503172524 72 53 2.6 8.7 0.00 0.00 0.00 58 1009.7
20260503172034 72 39 0.9 7.8 0.00 0.00 0.00 59 1009.8
20260503171508 72 9 0.9 4.3 0.00 0.00 0.00 59 1009.8
20260503171013 72 346 0.9 4.3 0.00 0.00 0.00 59 1009.8
20260503170524 72 10 1.7 4.3 0.00 0.00 0.00 57 1009.8
20260503151012 63 71 0.0 1.7 0.00 0.00 0.00 81 1010.1
20260503150518 62 355 0.0 0.9 0.00 0.00 0.00 84 1010.1
20260503131032 53 254 0.0 1.7 0.00 0.00 0.00 94 1009.8
20260503130538 53 254 0.0 1.7 0.00 0.00 0.00 93 1009.8
20260503110557 55 212 0.0 0.9 0.00 0.00 0.00 88 1009.9
20260503081509 56 283 0.0 0.0 0.00 0.00 0.00 87 1010.5
20260503081007 57 283 0.0 0.0 0.00 0.00 0.00 87 1010.5
20260503080517 57 283 0.0 0.0 0.00 0.00 0.00 87 1010.5
20260503072505 58 284 0.0 0.9 0.00 0.00 0.00 86 1010.8
20260503072015 58 284 0.0 0.9 0.00 0.00 0.00 86 1010.8
20260503071545 58 269 0.0 0.9 0.00 0.00 0.00 86 1010.9
20260503071047 58 269 0.0 0.0 0.00 0.00 0.00 86 1010.9
20260503070600 58 269 0.0 0.0 0.00 0.00 0.00 86 1010.9
20260503055036 61 263 0.0 0.9 0.00 0.00 0.00 80 1010.9
20260503054514 61 220 0.0 0.0 0.00 0.00 0.00 80 1010.8
20260503054024 61 220 0.0 0.0 0.00 0.00 0.00 79 1010.8
20260503053527 62 220 0.0 0.0 0.00 0.00 0.00 78 1010.9
20260503053021 62 220 0.0 0.0 0.00 0.00 0.00 77 1010.9
20260503052533 62 220 0.0 0.0 0.00 0.00 0.00 77 1010.9
20260503052041 63 220 0.0 0.0 0.00 0.00 0.00 76 1010.8
20260503051512 63 220 0.0 0.0 0.00 0.00 0.00 76 1010.8
20260503051025 63 220 0.0 0.0 0.00 0.00 0.00 75 1010.8
20260503050529 63 220 0.0 0.0 0.00 0.00 0.00 75 1010.8
20260503050035 63 220 0.0 0.0 0.00 0.00 0.00 75 1010.7
20260503045539 63 220 0.0 0.0 0.00 0.00 0.00 74 1010.7
20260503045041 63 220 0.0 0.9 0.00 0.00 0.00 74 1010.8
20260503044514 64 220 0.0 0.9 0.00 0.00 0.00 73 1010.8
20260503044019 64 304 0.0 0.0 0.00 0.00 0.00 73 1010.7
20260503043531 64 304 0.0 0.0 0.00 0.00 0.00 73 1010.7
20260503043002 64 304 0.0 1.7 0.00 0.00 0.00 72 1010.7
20260503042505 64 304 0.0 3.5 0.00 0.00 0.00 71 1010.6
20260503042014 64 300 0.0 0.9 0.00 0.00 0.00 72 1010.6
20260503041510 64 275 0.0 4.3 0.00 0.00 0.00 71 1010.6
20260503041015 64 267 1.7 4.3 0.00 0.00 0.00 71 1010.4
20260503040523 64 41 0.0 1.7 0.00 0.00 0.00 71 1010.5
20260503040059 64 17 0.0 1.7 0.00 0.00 0.00 70 1010.5
20260503035559 65 92 0.0 2.6 0.00 0.00 0.00 70 1010.4
20260503035011 65 92 0.0 2.6 0.00 0.00 0.00 69 1010.3
20260503034507 65 355 0.0 2.6 0.00 0.00 0.00 69 1010.2
20260503034012 65 306 0.9 2.6 0.00 0.00 0.00 69 1010.1
20260503033525 65 360 0.0 3.5 0.00 0.00 0.00 69 1010.0
20260503033132 64 95 0.9 3.5 0.00 0.00 0.00 70 1009.9
20260503032516 64 275 0.9 1.7 0.00 0.00 0.00 71 1009.7
20260503032017 64 247 0.0 1.7 0.00 0.00 0.00 72 1009.6
20260503031511 64 296 0.0 2.6 0.00 0.00 0.00 72 1009.6
20260503031020 64 333 0.0 3.5 0.00 0.00 0.00 73 1009.6
20260503030530 64 275 0.0 3.5 0.00 0.00 0.00 73 1009.5
20260503030005 64 275 0.0 2.6 0.00 0.00 0.00 73 1009.6
20260503025509 64 223 0.0 2.6 0.00 0.00 0.00 73 1009.6
20260503025017 64 276 0.0 1.7 0.00 0.00 0.00 72 1009.7
20260503024543 64 250 0.0 2.6 0.00 0.00 0.00 71 1009.9
20260503024051 65 250 0.9 2.6 0.00 0.00 0.00 70 1009.9
20260503023554 65 284 0.9 2.6 0.00 0.00 0.00 70 1010.1
20260503023033 65 277 0.0 2.6 0.00 0.00 0.00 70 1010.2
20260503022537 65 280 0.0 2.6 0.00 0.00 0.00 69 1010.3
20260503022055 65 355 0.0 0.0 0.00 0.00 0.00 68 1010.5
20260503021541 65 355 0.0 2.6 0.00 0.00 0.00 68 1010.7
20260503021053 65 355 0.0 7.0 0.00 0.00 0.00 68 1010.7
20260503020557 66 108 1.7 7.0 0.00 0.00 0.00 69 1011.1
20260503020505 66 144 1.7 7.0 0.00 0.00 0.00 69 1011.2
20260503020027 66 69 0.9 6.1 0.00 0.00 0.00 69 1011.2
20260503015542 66 67 0.9 6.1 0.00 0.00 0.00 69 1011.1
20260503015045 66 118 0.9 7.0 0.00 0.00 0.00 70 1011.0
20260503014535 67 140 1.7 8.7 0.00 0.00 0.00 70 1010.8
20260503014029 67 149 0.0 7.8 0.00 0.00 0.00 69 1010.8
20260503013537 67 134 1.7 7.0 0.00 0.00 0.00 68 1010.6
20260503013021 67 76 0.9 6.1 0.00 0.00 0.00 68 1010.4
20260503012519 67 81 0.9 6.1 0.00 0.00 0.00 68 1010.4
20260503012031 67 103 1.7 3.5 0.00 0.00 0.00 67 1010.4
20260503011503 67 108 0.9 6.1 0.00 0.00 0.00 67 1010.3
20260503011007 68 109 1.7 5.2 0.00 0.00 0.00 66 1010.3
20260503010519 67 50 0.9 3.5 0.00 0.00 0.00 66 1010.3
20260503010045 67 15 0.9 4.3 0.00 0.00 0.00 65 1010.3
20260503005555 67 65 1.7 4.3 0.00 0.00 0.00 65 1010.3
20260503005003 68 63 1.7 5.2 0.00 0.00 0.00 65 1010.3
20260503004542 68 111 1.7 4.3 0.00 0.00 0.00 65 1010.3
20260503004049 68 32 0.9 4.3 0.00 0.00 0.00 66 1010.3
20260503003551 68 98 0.0 6.1 0.00 0.00 0.00 65 1010.2
20260503003021 68 67 0.9 6.1 0.00 0.00 0.00 64 1010.2
20260503002531 69 5 0.9 4.3 0.00 0.00 0.00 63 1010.2
20260503002037 69 126 0.9 4.3 0.00 0.00 0.00 64 1010.1
20260503001509 69 53 1.7 3.5 0.00 0.00 0.00 62 1010.0
20260503001018 69 57 0.9 3.5 0.00 0.00 0.00 63 1010.0
20260503000524 68 155 0.0 7.0 0.00 0.00 0.00 65 1010.0
20260503000017 69 31 2.6 7.8 0.00 0.00 0.00 62 1010.1
20260502235527 69 305 1.7 7.8 0.00 0.00 0.00 63 1010.1
20260502235029 69 329 2.6 7.0 0.00 0.00 0.00 64 1010.1
20260502234501 68 5 2.6 7.8 0.00 0.00 0.00 63 1010.1
20260502234005 68 13 3.5 7.8 0.00 0.00 0.00 65 1010.0
20260502233513 68 74 1.7 5.2 0.00 0.00 0.00 65 1010.2
20260502233041 68 57 2.6 7.0 0.00 0.00 0.00 65 1010.3
20260502232546 68 25 1.7 4.3 0.00 0.00 0.00 65 1010.3
20260502232047 68 26 2.6 4.3 0.00 0.00 0.00 65 1010.4
20260502231517 68 35 0.9 5.2 0.00 0.00 0.00 64 1010.5
20260502231022 68 57 0.9 7.0 0.00 0.00 0.00 65 1010.6
20260502230529 67 13 1.7 7.0 0.00 0.00 0.00 66 1010.7
20260502230101 67 44 1.7 7.8 0.00 0.00 0.00 68 1010.8
20260502225505 66 95 2.6 5.2 0.00 0.00 0.00 66 1010.8
20260502225011 68 70 1.7 4.3 0.00 0.00 0.00 63 1010.9
20260502224535 68 40 0.0 4.3 0.00 0.00 0.00 65 1011.0
20260502224044 68 112 0.9 4.3 0.00 0.00 0.00 63 1011.1
20260502223545 67 114 0.0 7.0 0.00 0.00 0.00 65 1011.2
20260502223017 66 5 1.7 7.8 0.00 0.00 0.00 66 1011.5
20260502222518 65 355 4.3 7.8 0.00 0.00 0.00 66 1011.5
20260502222025 66 355 1.7 5.2 0.00 0.00 0.00 66 1011.5
20260502221604 66 5 1.7 5.2 0.00 0.00 0.00 66 1011.7
20260502221058 65 88 2.6 6.1 0.00 0.00 0.00 68 1011.6
20260502220505 65 38 1.7 7.0 0.00 0.00 0.00 67 1011.7
20260502220038 64 45 2.6 7.8 0.00 0.00 0.00 67 1011.7
20260502215542 64 34 2.6 7.8 0.00 0.00 0.00 68 1011.8
20260502215049 64 103 1.7 4.3 0.00 0.00 0.00 67 1011.9
20260502214513 65 85 1.7 5.2 0.00 0.00 0.00 68 1011.9
20260502214019 63 338 2.6 7.0 0.00 0.00 0.00 68 1012.0
20260502213529 63 57 1.7 7.0 0.00 0.00 0.00 68 1012.0
20260502213100 63 42 1.7 5.2 0.00 0.00 0.00 69 1012.0
20260502213002 63 351 2.6 5.2 0.00 0.00 0.00 68 1012.1
20260502212512 64 355 0.9 5.2 0.00 0.00 0.00 69 1012.0
20260502212022 63 111 1.7 7.8 0.00 0.00 0.00 69 1012.1
20260502211557 63 98 2.6 7.8 0.00 0.00 0.00 70 1012.1
20260502211054 62 30 1.7 5.2 0.00 0.00 0.00 71 1012.2
20260502210504 62 55 0.9 3.5 0.00 0.00 0.00 70 1012.3
20260502205555 63 242 0.0 4.3 0.00 0.00 0.00 68 1012.5
20260502205004 61 9 1.7 4.3 0.00 0.00 0.00 70 1012.5
20260502204527 61 57 0.9 5.2 0.00 0.00 0.00 70 1012.6
20260502204041 61 93 1.7 5.2 0.00 0.00 0.00 70 1012.6
20260502203544 61 53 1.7 5.2 0.00 0.00 0.00 71 1012.6
20260502203015 61 19 1.7 5.2 0.00 0.00 0.00 69 1012.7
20260502202533 61 292 2.6 5.2 0.00 0.00 0.00 70 1012.7
20260502202032 61 86 0.0 5.2 0.00 0.00 0.00 71 1012.8
20260502201559 60 28 0.9 5.2 0.00 0.00 0.00 72 1012.8
20260502201009 60 11 3.5 5.2 0.00 0.00 0.00 72 1013.0
20260502200517 60 12 1.7 6.1 0.00 0.00 0.00 69 1013.0
20260502200048 61 38 1.7 4.3 0.00 0.00 0.00 70 1013.1
20260502195600 61 83 0.9 5.2 0.00 0.00 0.00 69 1013.0
20260502195100 59 72 2.6 8.7 0.00 0.00 0.00 70 1013.1
20260502194534 59 331 4.3 8.7 0.00 0.00 0.00 71 1013.4
20260502194035 58 89 0.9 5.2 0.00 0.00 0.00 71 1013.5
20260502193547 59 11 1.7 6.1 0.00 0.00 0.00 71 1013.5
20260502193018 59 348 0.9 4.3 0.00 0.00 0.00 71 1013.7
20260502192528 58 84 1.7 4.3 0.00 0.00 0.00 72 1013.7
20260502192031 58 51 0.9 5.2 0.00 0.00 0.00 71 1013.8
20260502191559 57 5 0.0 7.8 0.00 0.00 0.00 74 1013.9
20260502191012 57 86 2.6 7.8 0.00 0.00 0.00 76 1013.9
20260502190517 57 55 0.9 6.1 0.00 0.00 0.00 74 1014.0
20260502190020 56 78 1.7 6.1 0.00 0.00 0.00 75 1014.0
20260502185531 56 56 0.0 4.3 0.00 0.00 0.00 75 1013.9
20260502185035 56 272 1.7 4.3 0.00 0.00 0.00 73 1014.0
20260502184511 57 344 1.7 3.5 0.00 0.00 0.00 74 1014.0
20260502184009 56 102 0.9 3.5 0.00 0.00 0.00 76 1014.1
20260502183521 56 72 0.9 3.5 0.00 0.00 0.00 76 1014.0
20260502183047 55 71 0.0 2.6 0.00 0.00 0.00 78 1014.1
20260502182551 54 103 0.9 2.6 0.00 0.00 0.00 79 1014.0
20260502182057 55 15 0.0 1.7 0.00 0.00 0.00 79 1014.1